0 IRIDIUM 7 1 24793U 97020B 24263.55187241 .00000921 00000-0 31406-3 0 9992 2 24793 86.3911 290.3048 0002019 89.0581 271.0847 14.35430375433288 0 IRIDIUM 5 1 24795U 97020D 24263.60206295 .00013369 00000-0 12234-2 0 9998 2 24795 86.3960 207.9596 0120057 28.1566 332.6081 14.89448039445110 0 IRIDIUM 4 1 24796U 97020E 24263.56752012 .00000911 00000-0 30488-3 0 9998 2 24796 86.3905 287.3506 0002264 88.0169 272.1288 14.36355759433646 0 IRIDIUM 914 1 24836U 97030A 24263.62226475 .00001080 00000-0 33531-3 0 9990 2 24836 86.3897 296.7448 0003530 66.9578 293.1993 14.40253992430279 0 IRIDIUM 16 1 24841U 97030F 24263.24947427 .00000991 00000-0 32045-3 0 9990 2 24841 86.4041 319.1349 0001436 162.5463 197.5784 14.38151170428056 0 IRIDIUM 911 1 24842U 97030G 24263.51189072 .00001454 00000-0 39553-3 0 9991 2 24842 86.4464 318.0662 0012017 281.6393 78.3461 14.46869956435934 0 IRIDIUM 17 1 24870U 97034B 24263.48677569 .00001208 00000-0 39904-3 0 9992 2 24870 86.4015 348.5974 0002760 129.9918 230.1522 14.37257720424699 0 IRIDIUM 920 1 24871U 97034C 24263.53027615 .00001101 00000-0 33680-3 0 9997 2 24871 86.4001 328.4451 0009476 250.9285 109.0888 14.40958721427599 0 IRIDIUM 921 1 24873U 97034E 24263.66364016 .00071147 00000-0 13162-2 0 9991 2 24873 86.3750 241.0251 0004498 139.8124 220.3468 15.48764887490032 0 IRIDIUM 26 1 24903U 97043A 24263.36827276 .00001397 00000-0 46877-3 0 9994 2 24903 86.3968 224.2237 0002223 86.9873 273.1579 14.36599991417857 0 IRIDIUM 22 1 24907U 97043E 24263.84564315 .00001254 00000-0 42987-3 0 9993 2 24907 86.3965 227.3334 0002430 88.3072 271.8403 14.35473707417976 0 IRIDIUM 29 1 24944U 97051A 24263.74916818 .00001239 00000-0 42080-3 0 9998 2 24944 86.3901 257.2358 0002548 88.0689 272.0800 14.35917979414678 0 IRIDIUM 33 1 24946U 97051C 24263.51729961 .00000818 00000-0 28324-3 0 9993 2 24946 86.3816 256.5795 0005996 231.5881 128.4777 14.34513741413934 0 IRIDIUM 28 1 24948U 97051E 24263.41172250 .00001086 00000-0 36111-3 0 9998 2 24948 86.3907 255.0451 0001931 94.6015 265.5403 14.36870733414953 0 IRIDIUM 36 1 24967U 97056C 24263.55096540 .00000969 00000-0 32016-3 0 9995 2 24967 86.3913 286.6667 0002338 96.8272 263.3192 14.37040542413342 0 IRIDIUM 39 1 25042U 97069D 24263.53497768 .00001848 00000-0 48772-3 0 9992 2 25042 86.3939 327.1799 0019998 126.6150 233.6896 14.48354760409774 0 IRIDIUM 38 1 25043U 97069E 24263.52836647 .00001323 00000-0 43539-3 0 9999 2 25043 86.4015 347.0339 0000363 128.9531 231.1699 14.37534611407063 0 IRIDIUM 42 1 25077U 97077A 24263.48452885 .00001157 00000-0 39346-3 0 9994 2 25077 86.4025 352.8831 0001469 88.4562 271.6803 14.35811438402349 0 IRIDIUM 44 1 25078U 97077B 24263.54081721 .00001183 00000-0 37238-3 0 9996 2 25078 86.3996 335.5194 0002504 139.2014 220.9373 14.39655723404757 0 IRIDIUM 45 1 25104U 97082A 24263.48062686 .00020356 00000-0 10284-2 0 9998 2 25104 86.3723 177.8544 0144452 255.5008 103.0167 15.08206287411041 0 IRIDIUM 24 1 25105U 97082B 24263.51176916 .00001542 00000-0 46915-3 0 9992 2 25105 86.3978 194.9582 0009101 249.1114 110.9112 14.41472545404210 0 IRIDIUM 51 1 25262U 98018A 24263.50473538 .00025834 00000-0 10428-2 0 9994 2 25262 86.4001 187.3505 0130354 191.9446 167.8698 15.17069331405681 0 IRIDIUM 57 1 25273U 98019B 24263.74978790 .00001020 00000-0 34869-3 0 9990 2 25273 86.3902 258.4892 0002278 90.6074 269.5384 14.35407243386199 0 IRIDIUM 63 1 25286U 98021B 24263.52740159 .00001399 00000-0 47508-3 0 9992 2 25286 86.4051 195.5289 0002592 83.4436 276.7056 14.36009395384990 0 IRIDIUM 69 1 25319U 98026A 24263.59565345 .00001957 00000-0 61218-3 0 9997 2 25319 86.4021 209.5858 0002718 137.5983 222.5426 14.40272688384105 0 IRIDIUM 71 1 25320U 98026B 24263.57548436 .00001502 00000-0 46545-3 0 9991 2 25320 86.4029 204.3412 0000401 119.5381 240.5859 14.40575210384627 0 IRIDIUM 73 1 25344U 98032C 24263.45393176 .00001644 00000-0 41169-3 0 9994 2 25344 86.4482 161.7223 0002329 98.6293 261.5176 14.50895286391297 0 IRIDIUM 82 1 25467U 98051A 24263.76349761 .00023795 00000-0 10828-2 0 9994 2 25467 86.3713 240.7370 0115101 230.0777 129.0306 15.14747437382784 0 IRIDIUM 106 1 41917U 17003A 24263.50428603 .00000810 00000-0 28199-3 0 9999 2 41917 86.4030 354.1782 0002092 105.4680 254.6746 14.34219928402094 0 IRIDIUM 103 1 41918U 17003B 24263.70088704 .00000845 00000-0 29456-3 0 9991 2 41918 86.4028 353.9974 0001442 95.6401 264.4959 14.34215065402151 0 IRIDIUM 109 1 41919U 17003C 24263.49794491 .00000142 00000-0 43732-4 0 9999 2 41919 86.4026 354.1312 0002072 84.8043 275.3389 14.34213241402085 0 IRIDIUM 102 1 41920U 17003D 24263.53599953 .00000858 00000-0 29922-3 0 9990 2 41920 86.4030 354.0528 0002232 93.4244 266.7207 14.34217492402172 0 IRIDIUM 105 1 41921U 17003E 24263.57648352 .00000641 00000-0 22194-3 0 9997 2 41921 86.3987 322.4858 0002153 94.8872 265.2569 14.34214267404031 0 IRIDIUM 104 1 41922U 17003F 24263.54868706 .00000912 00000-0 31865-3 0 9998 2 41922 86.4032 354.0804 0002064 80.9528 279.1901 14.34217988402160 0 IRIDIUM 114 1 41923U 17003G 24263.55502824 .00000860 00000-0 29983-3 0 9996 2 41923 86.4030 354.0633 0002025 99.1186 261.0239 14.34218328402149 0 IRIDIUM 108 1 41924U 17003H 24263.51354944 .00000787 00000-0 27396-3 0 9995 2 41924 86.3982 322.4307 0002254 100.2218 259.9232 14.34216776403994 0 IRIDIUM 112 1 41925U 17003J 24263.54232761 .00000734 00000-0 25509-3 0 9997 2 41925 86.4030 353.9404 0002338 87.8174 272.3289 14.34215482402196 0 IRIDIUM 111 1 41926U 17003K 24263.52965269 .00000576 00000-0 19861-3 0 9990 2 41926 86.4027 354.0017 0001891 89.4174 270.7239 14.34217153402145 0 IRIDIUM 113 1 42803U 17039A 24263.37007919 .00000245 00000-0 80481-4 0 9996 2 42803 86.3974 227.8092 0002089 82.2484 277.8949 14.34214633380056 0 IRIDIUM 123 1 42804U 17039B 24263.06271923 .00000018 00000-0 -67386-6 0 9991 2 42804 86.3914 259.4310 0001966 91.9292 268.2129 14.34216975378773 0 IRIDIUM 120 1 42805U 17039C 24263.36373475 .00000660 00000-0 22874-3 0 9992 2 42805 86.3959 227.6782 0002444 82.8648 277.2825 14.34216576380042 0 IRIDIUM 115 1 42806U 17039D 24263.63212910 .00001305 00000-0 38198-3 0 9992 2 42806 86.4501 227.6030 0002023 77.4408 282.7019 14.43281602382590 0 IRIDIUM 118 1 42807U 17039E 24262.95489318 .00000138 00000-0 42170-4 0 9994 2 42807 86.3912 259.4772 0002412 91.4391 268.7081 14.34218881378756 0 IRIDIUM 117 1 42808U 17039F 24263.39253429 .00000267 00000-0 88305-4 0 9999 2 42808 86.3908 259.2574 0002150 88.5020 271.6422 14.34218221378845 0 IRIDIUM 126 1 42809U 17039G 24263.69697894 .00000255 00000-0 83900-4 0 9994 2 42809 86.3911 259.1709 0002141 89.3219 270.8222 14.34218086378879 0 IRIDIUM 124 1 42810U 17039H 24263.77391072 .00001233 00000-0 36061-3 0 9996 2 42810 86.4556 195.9238 0002336 92.1446 268.0022 14.43287959383464 0 IRIDIUM 128 1 42811U 17039J 24263.47840639 .00000567 00000-0 19541-3 0 9995 2 42811 86.3919 290.8141 0002107 95.2568 264.8868 14.34217247378863 0 IRIDIUM 121 1 42812U 17039K 24263.43693326 .00000322 00000-0 10808-3 0 9997 2 42812 86.3910 259.3028 0002246 89.8069 270.3384 14.34217982378702 0 IRIDIUM 133 1 42955U 17061A 24263.57989689 .00000554 00000-0 19058-3 0 9998 2 42955 86.3923 290.8738 0002294 90.6298 269.5160 14.34218110363675 0 IRIDIUM 100 1 42956U 17061B 24263.36424665 .00000483 00000-0 16548-3 0 9996 2 42956 86.3921 290.8975 0002165 95.2483 264.8960 14.34218200363644 0 IRIDIUM 122 1 42957U 17061C 24263.47206863 .00000456 00000-0 15572-3 0 9993 2 42957 86.3919 290.8508 0002009 91.7158 268.4268 14.34218094363665 0 IRIDIUM 129 1 42958U 17061D 24263.49743810 .00000280 00000-0 92757-4 0 9990 2 42958 86.3922 290.9004 0002192 85.3090 274.8356 14.34218462363689 0 IRIDIUM 119 1 42959U 17061E 24263.39595922 .00000483 00000-0 16537-3 0 9995 2 42959 86.3922 290.9356 0001905 93.4581 266.6833 14.34216703363681 0 IRIDIUM 107 1 42960U 17061F 24263.41498669 .00000496 00000-0 17015-3 0 9996 2 42960 86.3923 290.9452 0001988 97.5173 262.6248 14.34218227363694 0 IRIDIUM 132 1 42961U 17061G 24263.42132587 .00000493 00000-0 16906-3 0 9997 2 42961 86.3924 290.9266 0002063 101.1527 258.9901 14.34217683363698 0 IRIDIUM 136 1 42962U 17061H 24262.54603247 .00000667 00000-0 23093-3 0 9994 2 42962 86.3924 291.2965 0002091 89.8486 270.2949 14.34225421363582 0 IRIDIUM 139 1 42963U 17061J 24263.59892182 .00000572 00000-0 19722-3 0 9998 2 42963 86.3924 290.9075 0002026 100.7986 259.3437 14.34217769363741 0 IRIDIUM 125 1 42964U 17061K 24263.37692865 .00000444 00000-0 15153-3 0 9993 2 42964 86.3926 291.0499 0001644 90.6492 269.4892 14.34218763363720 0 IRIDIUM 135 1 43070U 17083A 24263.35105147 .00000814 00000-0 28346-3 0 9995 2 43070 86.3970 227.6948 0002698 88.0352 272.1153 14.34217770353017 0 IRIDIUM 138 1 43071U 17083B 24263.65549928 .00000816 00000-0 28413-3 0 9995 2 43071 86.3958 227.2736 0002120 74.4500 285.6930 14.34218370353041 0 IRIDIUM 116 1 43072U 17083C 24263.90284854 .00000584 00000-0 20158-3 0 9998 2 43072 86.3964 227.4582 0002296 88.6482 271.4977 14.34213704353118 0 IRIDIUM 130 1 43073U 17083D 24262.40599388 .00000925 00000-0 32320-3 0 9997 2 43073 86.3974 228.2967 0002255 91.1611 268.9843 14.34223580352849 0 IRIDIUM 151 1 43074U 17083E 24263.35738367 .00000191 00000-0 61083-4 0 9999 2 43074 86.3968 227.7291 0002509 80.1058 280.0421 14.34212682353009 0 IRIDIUM 134 1 43075U 17083F 24263.39544330 -.00000036 00000-0 -19863-4 0 9998 2 43075 86.3970 227.7128 0002233 91.1839 268.9612 14.34213686352972 0 IRIDIUM 137 1 43076U 17083G 24263.61743041 .00000509 00000-0 17451-3 0 9997 2 43076 86.3970 227.6998 0002854 86.9608 273.1915 14.34215877353072 0 IRIDIUM 141 1 43077U 17083H 24263.40179210 .00000395 00000-0 13402-3 0 9991 2 43077 86.3966 227.6572 0002294 84.1740 275.9717 14.34210442353041 0 IRIDIUM 153 1 43078U 17083J 24263.56328007 .00001028 00000-0 36011-3 0 9994 2 43078 86.4035 196.1017 0002084 67.9014 292.2403 14.34219002354174 0 IRIDIUM 131 1 43079U 17083K 24262.97048175 .00000016 00000-0 -12207-5 0 9994 2 43079 86.3974 227.9801 0002414 86.6854 273.4618 14.34215785352910 0 IRIDIUM 144 1 43249U 18030A 24263.77893503 .00001289 00000-0 45307-3 0 9995 2 43249 86.4032 195.9562 0002344 88.9720 271.1744 14.34216220339085 0 IRIDIUM 149 1 43250U 18030B 24263.57594582 .00000451 00000-0 15414-3 0 9996 2 43250 86.4032 196.0149 0002486 86.7410 273.4070 14.34215946339057 0 IRIDIUM 157 1 43251U 18030C 24263.52521545 .00000859 00000-0 29967-3 0 9991 2 43251 86.4033 196.0748 0002629 77.6295 282.5194 14.34223990339026 0 IRIDIUM 140 1 43252U 18030D 24263.54424212 .00000871 00000-0 30375-3 0 9996 2 43252 86.4034 196.0813 0002099 85.4900 274.6535 14.34224018339081 0 IRIDIUM 145 1 43253U 18030E 24263.53156857 .00000931 00000-0 32546-3 0 9992 2 43253 86.4034 196.0600 0002343 93.1527 266.9937 14.34220014339014 0 IRIDIUM 146 1 43254U 18030F 24262.88462359 .00000154 00000-0 47946-4 0 9995 2 43254 86.4032 196.3442 0002240 91.9121 268.2332 14.34213608338937 0 IRIDIUM 148 1 43255U 18030G 24263.55059358 .00000902 00000-0 31513-3 0 9995 2 43255 86.4036 196.0998 0002487 86.4650 273.6830 14.34221668339067 0 IRIDIUM 142 1 43256U 18030H 24263.51887095 .00000800 00000-0 27872-3 0 9999 2 43256 86.4030 196.0251 0002470 92.2246 267.9232 14.34222014339026 0 IRIDIUM 150 1 43257U 18030J 24263.55693916 .00000917 00000-0 32040-3 0 9993 2 43257 86.4035 196.1049 0002227 91.6362 268.5089 14.34220771339070 0 IRIDIUM 143 1 43258U 18030K 24262.35183158 .00000858 00000-0 29941-3 0 9993 2 43258 86.4037 196.6751 0002282 89.1190 271.0267 14.34224388338816 0 IRIDIUM 161 1 43478U 18047C 24263.54388420 .00001253 00000-0 36638-3 0 9997 2 43478 86.4550 354.1135 0002013 92.3235 267.8197 14.43283536333455 0 IRIDIUM 152 1 43479U 18047D 24263.51062655 .00001284 00000-0 45137-3 0 9992 2 43479 86.4024 353.9866 0002200 94.2277 265.9170 14.34222261331372 0 IRIDIUM 147 1 43480U 18047E 24263.30766853 .00000905 00000-0 31602-3 0 9993 2 43480 86.4027 354.0653 0002131 87.6659 272.4781 14.34217802331349 0 IRIDIUM 110 1 43481U 18047F 24262.68609194 .00000076 00000-0 19982-4 0 9995 2 43481 86.4028 354.3994 0001953 87.9382 272.2037 14.34213795331247 0 IRIDIUM 162 1 43482U 18047G 24263.53755960 .00001119 00000-0 32659-3 0 9998 2 43482 86.4549 354.0150 0001928 84.3936 275.7485 14.43282652333442 0 IRIDIUM 160 1 43569U 18061A 24263.39937554 .00000046 00000-0 94718-5 0 9999 2 43569 86.3985 322.4933 0002314 88.5818 271.5642 14.34215912322244 0 IRIDIUM 166 1 43570U 18061B 24263.42475333 .00000606 00000-0 20937-3 0 9999 2 43570 86.3983 322.4419 0002109 100.5517 259.5916 14.34218306322279 0 IRIDIUM 158 1 43571U 18061C 24263.60232729 .00000642 00000-0 22213-3 0 9999 2 43571 86.3984 322.3773 0002020 98.1067 262.0358 14.34214112322277 0 IRIDIUM 165 1 43572U 18061D 24263.55793888 .00000129 00000-0 38888-4 0 9998 2 43572 86.3984 322.4293 0002236 95.9370 264.2081 14.34208535322287 0 IRIDIUM 155 1 43573U 18061E 24263.45012419 .00000635 00000-0 21959-3 0 9994 2 43573 86.3983 322.3756 0002084 98.1242 262.0190 14.34216772322238 0 IRIDIUM 154 1 43574U 18061F 24263.43109500 .00000663 00000-0 22958-3 0 9992 2 43574 86.3985 322.4858 0002204 90.2618 269.8830 14.34217257322289 0 IRIDIUM 163 1 43575U 18061G 24263.55160387 .00000642 00000-0 22209-3 0 9992 2 43575 86.3983 322.3708 0002050 93.4853 266.6577 14.34219405322275 0 IRIDIUM 156 1 43576U 18061H 24262.61922308 .00000660 00000-0 22854-3 0 9994 2 43576 86.3985 322.7670 0002241 102.0351 258.1096 14.34225595322136 0 IRIDIUM 164 1 43577U 18061J 24263.57697529 .00000664 00000-0 23002-3 0 9995 2 43577 86.3984 322.3971 0002379 92.2534 267.8935 14.34219759322315 0 IRIDIUM 159 1 43578U 18061K 24263.47549526 .00000751 00000-0 26108-3 0 9995 2 43578 86.3983 322.3895 0002244 95.6117 264.5335 14.34219232322263 0 IRIDIUM 180 1 43922U 19002A 24263.47499197 .00000323 00000-0 10827-3 0 9998 2 43922 86.3909 259.2238 0002389 85.7094 274.4374 14.34216772297919 0 IRIDIUM 176 1 43923U 19002B 24263.59298402 .00001142 00000-0 17716-3 0 9992 2 43923 86.6039 259.1884 0002763 87.0770 273.0763 14.72250900305735 0 IRIDIUM 168 1 43924U 19002C 24263.39887741 -.00000093 00000-0 -40385-4 0 9996 2 43924 86.3912 259.3150 0002285 88.6183 271.5275 14.34216612297848 0 IRIDIUM 173 1 43925U 19002D 24263.52572940 .00000069 00000-0 17738-4 0 9991 2 43925 86.3911 259.1769 0002291 86.6826 273.4632 14.34217715297844 0 IRIDIUM 169 1 43926U 19002E 24263.51250212 .00000760 00000-0 24200-3 0 9995 2 43926 86.4178 290.8343 0000475 58.6720 301.4524 14.38609607298836 0 IRIDIUM 172 1 43927U 19002F 24263.44961941 .00000315 00000-0 10554-3 0 9999 2 43927 86.3908 259.2148 0002320 90.8128 269.3333 14.34217706297841 0 IRIDIUM 175 1 43928U 19002G 24263.45150666 .00002135 00000-0 33451-3 0 9998 2 43928 86.1506 227.0745 0002189 91.7285 268.4182 14.72252095305706 0 IRIDIUM 171 1 43929U 19002H 24263.43059078 .00000241 00000-0 79143-4 0 9997 2 43929 86.3918 259.4590 0002498 95.0528 265.0953 14.34217290297832 0 IRIDIUM 170 1 43930U 19002J 24263.39525727 .00001036 00000-0 16041-3 0 9993 2 43930 86.6039 259.2764 0002666 86.8849 273.2673 14.72251344305710 0 IRIDIUM 167 1 43931U 19002K 24263.42424722 .00000211 00000-0 68352-4 0 9998 2 43931 86.3910 259.2423 0002350 92.8980 267.2484 14.34218168297832 0 IRIDIUM 181 1 56726U 23068S 24263.51625337 .00000987 00000-0 28578-3 0 9991 2 56726 86.8637 317.5575 0002323 100.6932 259.4531 14.43586865 70747 0 IRIDIUM 177 1 56727U 23068T 24263.46194219 .00001454 00000-0 18803-3 0 9996 2 56727 86.1916 270.5851 0002026 94.3979 265.7474 14.80199688 72322 0 IRIDIUM 174 1 56728U 23068U 24263.45656816 .00001344 00000-0 17358-3 0 9994 2 56728 86.1923 270.6990 0002215 95.9557 264.1916 14.80182841 72322 0 IRIDIUM 178 1 56729U 23068V 24263.51863086 .00003036 00000-0 39614-3 0 9990 2 56729 86.5732 292.6203 0002472 94.0078 266.1426 14.80231825 72335 0 IRIDIUM 179 1 56730U 23068W 24263.44559993 .00003145 00000-0 41028-3 0 9996 2 56730 86.6750 297.9777 0001897 92.5046 267.6393 14.80243882 72324